Regional Weather Roundup
Issued by NWS

Home | Current Version | Previous Version | Text Only | Print | Product List | Glossary Off
Versions: 1 2 3 4 5 6 7 8 9 10 11 12 13 14 15 16 17 18 19 20 21 22 23 24 25 26 27 28 29 30 31 32 33 34 35 36 37 38 39 40 41 42 43 44 45 46 47 48 49 50

000
ASUS43 KDMX 221806
RWRIA

WEATHER ROUNDUP FOR IOWA
NATIONAL WEATHER SERVICE DES MOINES IA
1200 PM CST SUN JAN 22 2017

NOTE: "FAIR" INDICATES FEW OR NO CLOUDS BELOW 12,000 FEET WITH NO
SIGNIFICANT WEATHER AND/OR OBSTRUCTIONS TO VISIBILITY.

* - THESE STATIONS ARE NOT NWS STATIONS...THUS NOT UNDER NWS
QUALITY CONTROL.  THEY ALSO DO NOT REPORT WEATHER SUCH
AS PRECIPITATION OR FOG.

IAZ001>003-012>014-020>022-031>034-043>046-221900-
   NORTHWEST IOWA

CITY           SKY/WX    TMP DP  RH WIND       PRES   REMARKS
CARROLL *      CLOUDY    36  36 100 NW13      29.74S FOG     WCI  27
CHEROKEE *     CLOUDY    36  35  96 N8        29.77S WCI  29
DENISON *      CLOUDY    36  34  93 N9        29.74F FOG     WCI  29
LE MARS *      CLOUDY    36  32  87 NW9       29.81R WCI  29
ORANGE CITY *  CLOUDY    36  34  93 NW12      29.78S FOG     WCI  27
SHELDON *      CLOUDY    34  34 100 NW8       29.76S WCI  27
SIOUX CITY     CLOUDY    34  31  88 NW14      29.81R WCI  25
6HR MIN TEMP:  34; 6HR MAX TEMP:  37;

SPENCER          N/A    N/A N/A N/A MISG      29.76R
STORM LAKE *   PTSUNNY   34  34 100 NW9       29.75F FOG     WCI  26
$$

IAZ055>058-069>071-079>083-090>094-221900-
   SOUTHWEST IOWA

CITY           SKY/WX    TMP DP  RH WIND       PRES   REMARKS
ATLANTIC *     CLOUDY    36  34  93 N14       29.75S FOG     WCI  27
AUDUBON *      CLOUDY    34  32  93 NW10      29.75S FOG     WCI  26
CLARINDA *     CLOUDY    36  36 100 N9        29.78S WCI  29
COUNCIL BLFS * CLOUDY    36  34  93 NW15G21   29.77S WCI  26
CRESTON *      CLOUDY    34  34 100 NW8       29.74S FOG     WCI  27
HARLAN  *      CLOUDY    36  36 100 NW17      29.79S WCI  25
LAMONI         CLOUDY    36  34  92 N12       29.71F WCI  28
6HR MIN TEMP:  30; 6HR MAX TEMP:  36;

RED OAK *      CLOUDY    36  34  93 NW9       29.77S WCI  29
SHENANDOAH *   CLOUDY    36  34  93 N8        29.79R WCI  29
$$

IAZ047>049-059>061-072>074-084-221900-
   CENTRAL IOWA

CITY           SKY/WX    TMP DP  RH WIND       PRES   REMARKS
AMES           CLOUDY    36  36 100 N12       29.72S FOG     WCI  28
6HR MIN TEMP:  33; 6HR MAX TEMP:  36;

ANKENY *       CLOUDY    36  34  93 NW12      29.73F FOG     WCI  27
BOONE *        CLOUDY    36  36 100 NW12      29.71S FOG     WCI  27
CHARITON *     CLOUDY    36  36 100 N12       29.71F WCI  27
DES MOINES     CLOUDY    37  34  89 NW10      29.72F FOG     WCI  30
6HR MIN TEMP:  32; 6HR MAX TEMP:  37;

GRINNELL*      CLOUDY    34  34  99 NW9       29.70F FOG     WCI  27
KNOXVILLE *    CLOUDY    36  34  93 NW12      29.70F FOG     WCI  27
MARSHALLTOWN   CLOUDY    36  35  96 N12       29.70S WCI  28
6HR MIN TEMP:  32; 6HR MAX TEMP:  36;

NEWTON *       CLOUDY    36  34  93 NW13      29.70F FOG     WCI  27
PELLA *        CLOUDY    36  35  96 NW8       29.72F FOG     WCI  29
PERRY *        CLOUDY    36  35  96 NW10      29.73S FOG     WCI  28
$$

IAZ004>006-015-016-023>025-035-036-221900-
   NORTH CENTRAL IOWA

CITY           SKY/WX    TMP DP  RH WIND       PRES   REMARKS
ALGONA *       CLOUDY    36  36 100 NW7       29.74S FOG     WCI  30
CLARION *      CLOUDY    36  36 100 NW7       29.72F FOG     WCI  30
ESTHERVILLE    CLOUDY    35  35 100 NW12      29.74R FOG     WCI  27
6HR MIN TEMP:  32; 6HR MAX TEMP:  35;

FORT DODGE *   CLOUDY    36  32  87 NW5       29.74S WCI  32
MASON CITY     CLOUDY    34  34 100 NW9       29.71F FOG     WCI  27
6HR MIN TEMP:  32; 6HR MAX TEMP:  34;

FOREST CITY *  FOG       34  34 100 NW9       29.71F VSB 1/2 WCI  26
WEBSTER CITY * FOG       36 N/A N/A NW12      29.70F VSB 1/4 WCI  27
IOWA FALLS *   CLOUDY    37  36  98 NW12      29.71F FOG     WCI  29
$$

IAZ007>011-017>019-026>030-037>042-050>054-066-221900-
   NORTHEAST IOWA

CITY           SKY/WX    TMP DP  RH WIND       PRES   REMARKS
CEDAR RAPIDS   CLOUDY    34  33  96 NW8       29.68F FOG     WCI  27
6HR MIN TEMP:  32; 6HR MAX TEMP:  34;

CHARLES CITY * CLOUDY    36  36 100 NW7       29.70S FOG     WCI  30
CLINTON *      CLOUDY    34  34 100 NW5       29.67F WCI  30
DECORAH *      CLOUDY    36  36 100 NW7       29.67S FOG     WCI  30
DUBUQUE        CLOUDY    39  36  89 NW3       29.66F
6HR MIN TEMP:  27; 6HR MAX TEMP:  39;

MONTICELLO *   CLOUDY    36  36 100 W3        29.67F FOG
OELWEIN *      CLOUDY    34  34 100 NW7       29.69S FOG     WCI  28
WATERLOO       CLOUDY    36  32  85 NW8       29.70S WCI  30
6HR MIN TEMP:  32; 6HR MAX TEMP:  36;

$$

IAZ064-065-067-068-078-221900-
   EAST CENTRAL IOWA

CITY           SKY/WX    TMP DP  RH WIND       PRES   REMARKS
DAVENPORT      CLOUDY    34  33  96 N8        29.66F WCI  27
6HR MIN TEMP:  28; 6HR MAX TEMP:  34;

IOWA CITY      CLOUDY    37  34  89 NW7       29.70F WCI  32
6HR MIN TEMP:  31; 6HR MAX TEMP:  37;

MUSCATINE *    CLOUDY    37  36  93 NW7       29.69S FOG     WCI  32
QUAD CITIES    CLOUDY    41  36  82 W6        29.65F
6HR MIN TEMP:  31; 6HR MAX TEMP:  41;

$$

IAZ062-063-075>077-085>089-095>099-221900-
   SOUTHEAST IOWA

CITY           SKY/WX    TMP DP  RH WIND       PRES   REMARKS
BURLINGTON     CLOUDY    39  39 100 N9        29.65F FOG     WCI  33
6HR MIN TEMP:  34; 6HR MAX TEMP:  40; 6HR PCP: TRACE;

FAIRFIELD *    CLOUDY    34  34 100 NW10      29.69F FOG     WCI  26
FORT MADISON * LGT RAIN  39  37  93 N13       29.67S WCI  32
KEOKUK *       CLOUDY    39 N/A N/A NW8       29.66S FOG     WCI  34
OSKALOOSA *    CLOUDY    34  34 100 NW6       29.70F WCI  29
CENTERVILLE *  CLOUDY    36  36 100 N12       29.71F WCI  27
OTTUMWA        CLOUDY    37  32  82 NW10      29.70F WCI  30
6HR MIN TEMP:  31; 6HR MAX TEMP:  37;

WASHINGTON *   CLOUDY    34  34 100 NW12      29.70F FOG     WCI  25
$$

ABBREVIATIONS USED IN REMARKS
   TC - TEMPERATURES IN CELSIUS
  WCI - WIND CHILL INDEX
   HX - HEAT INDEX
  VSB - VISIBILITY
$$





USA.gov is the U.S. government's official web portal to all federal, state and local government web resources and services.